EW9439 Weather Reports


Display with metric or nautical units.
time (UTC)temp
F
wind
direction
speed
MPH
gust
MPH
rain 1hr
in
rain 24hr
in
rain mn
in
humidity
%
barometer
mb
20260508210032 68 148 0.0 0.0 0.00 0.00 0.00 61 1010.7
20260508204529 68 148 0.0 0.0 0.00 0.00 0.00 58 1010.7
20260508203035 68 148 0.0 0.0 0.00 0.00 0.00 57 1010.8
20260508201521 68 148 0.0 0.0 0.00 0.00 0.00 57 1011.0
20260508200007 68 148 0.0 0.0 0.00 0.00 0.00 54 1010.8
20260508194506 68 148 0.0 0.0 0.00 0.00 0.00 57 1011.1
20260508193012 69 148 0.0 0.0 0.00 0.00 0.00 53 1011.7
20260508191532 69 144 0.0 0.0 0.00 0.00 0.00 50 1011.6
20260508190040 70 144 0.0 0.0 0.00 0.00 0.00 53 1012.0
20260508184519 69 164 0.0 0.0 0.00 0.00 0.00 54 1012.1
20260508183018 69 164 0.0 0.0 0.00 0.00 0.00 50 1012.5
20260508181539 69 155 0.0 0.0 0.00 0.00 0.00 55 1012.4
20260508180024 69 155 0.0 0.0 0.00 0.00 0.00 57 1012.5
20260508174529 69 155 0.0 0.0 0.00 0.00 0.00 53 1012.9
20260508173053 69 307 0.0 0.0 0.00 0.00 0.00 52 1012.9
20260508171518 70 5 0.0 0.0 0.00 0.00 0.00 54 1013.3
20260508170022 69 22 0.0 1.0 0.00 0.00 0.00 58 1013.3
20260508164533 68 315 0.0 4.0 0.00 0.00 0.00 57 1013.7
20260508163019 68 235 0.0 0.0 0.00 0.00 0.00 62 1013.8
20260508161520 67 166 0.0 0.0 0.00 0.00 0.00 63 1014.0
20260508160034 66 159 0.0 0.0 0.00 0.00 0.00 65 1014.5
20260508154524 66 342 0.0 0.0 0.00 0.00 0.00 65 1014.6
20260508153024 65 208 0.0 0.0 0.00 0.00 0.00 67 1014.7
20260508151526 63 107 0.0 0.0 0.00 0.00 0.00 70 1014.7
20260508150026 62 10 0.0 0.0 0.00 0.01 0.00 71 1014.8
20260508144525 62 327 0.0 0.0 0.00 0.01 0.00 74 1014.9
20260508143044 61 306 0.0 0.0 0.00 0.01 0.00 75 1014.9
20260508141557 60 293 0.0 0.0 0.00 0.01 0.00 76 1014.8
20260508140055 58 234 0.0 0.0 0.00 0.08 0.00 82 1014.7
20260508134554 56 229 0.0 0.0 0.00 0.08 0.00 84 1014.8
20260508133059 55 182 0.0 0.0 0.00 0.08 0.00 91 1015.0
20260508131602 54 182 0.0 0.0 0.00 0.08 0.00 95 1015.0
20260508130042 53 182 0.0 0.0 0.00 0.17 0.00 96 1014.9
20260508124523 52 182 0.0 0.0 0.00 0.17 0.00 96 1014.8
20260508123004 52 182 0.0 0.0 0.00 0.17 0.00 97 1014.7
20260508121504 51 182 0.0 0.0 0.00 0.17 0.00 97 1014.7
20260508120100 50 182 0.0 0.0 0.00 0.30 0.00 97 1014.4
20260508120001 50 182 0.0 0.0 0.00 0.30 0.00 97 1014.4
20260508114503 49 182 0.0 0.0 0.00 0.30 0.00 96 1014.0
20260508113100 49 182 0.0 0.0 0.00 0.30 0.00 96 1013.6
20260508113004 49 182 0.0 0.0 0.00 0.30 0.00 96 1013.6
20260508111505 49 182 0.0 0.0 0.00 0.30 0.00 95 1013.2
20260508110007 49 182 0.0 0.0 0.00 0.37 0.00 95 1013.0
20260508104507 49 182 0.0 0.0 0.00 0.37 0.00 95 1012.9
20260508103025 49 182 0.0 0.0 0.00 0.37 0.00 95 1012.6
20260508101521 49 182 0.0 0.0 0.00 0.37 0.00 94 1012.3
20260508100018 49 182 0.0 0.0 0.00 0.46 0.00 94 1011.9
20260508094617 50 182 0.0 0.0 0.00 0.46 0.00 94 1011.9
20260508094501 50 182 0.0 0.0 0.00 0.46 0.00 94 1012.0
20260508093059 50 182 0.0 0.0 0.00 0.46 0.00 94 1011.8
20260508093000 50 182 0.0 0.0 0.00 0.46 0.00 94 1011.8
20260508091504 50 182 0.0 0.0 0.00 0.46 0.00 94 1011.9
20260508090008 51 182 0.0 0.0 0.00 0.47 0.00 94 1011.7
20260508084511 51 182 0.0 0.0 0.00 0.47 0.00 94 1011.7
20260508083012 51 182 0.0 0.0 0.00 0.47 0.00 94 1011.4
20260508081511 52 182 0.0 0.0 0.00 0.47 0.00 94 1011.2
20260508080011 52 182 0.0 0.0 0.00 0.47 0.00 94 1011.2
20260508074551 52 182 0.0 0.0 0.00 0.47 0.00 94 1011.3
20260508073052 53 182 0.0 0.0 0.00 0.47 0.00 95 1011.3
20260508071553 53 182 0.0 0.0 0.00 0.47 0.00 94 1011.4
20260508071503 53 182 0.0 0.0 0.00 0.47 0.00 94 1011.4
20260508070059 53 182 0.0 0.0 0.00 0.50 0.00 95 1011.6
20260508064610 54 182 0.0 0.0 0.00 0.50 0.00 94 1011.4
20260508064507 54 182 0.0 0.0 0.00 0.50 0.00 94 1011.4
20260508063005 54 182 0.0 0.0 0.00 0.50 0.00 95 1011.6
20260508061512 54 182 0.0 0.0 0.00 0.50 0.00 95 1011.8
20260508060005 55 182 0.0 0.0 0.00 0.59 0.00 95 1011.9
20260508054506 55 182 0.0 0.0 0.00 0.59 0.00 95 1011.8
20260508053019 55 182 0.0 0.0 0.00 0.59 0.00 94 1011.9
20260508051514 55 182 0.0 0.0 0.00 0.59 0.00 94 1011.9
20260508050020 55 182 0.0 0.0 0.00 1.17 0.00 94 1012.0
20260508044514 55 182 0.0 0.0 0.00 1.17 0.00 94 1011.9
20260508043015 55 182 0.0 0.0 0.00 1.17 0.00 93 1011.8
20260508041516 56 182 0.0 0.0 0.00 1.17 0.00 94 1011.6
20260508040022 56 182 0.0 0.0 0.00 1.54 1.17 93 1011.4
20260508034514 56 182 0.0 0.0 0.00 1.54 1.17 92 1011.6
20260508033013 57 182 0.0 0.0 0.00 1.54 1.17 93 1011.6
20260508031511 57 182 0.0 0.0 0.00 1.54 1.17 92 1011.5
20260508030016 57 182 0.0 0.0 0.00 2.20 1.17 91 1011.4
20260508024517 58 182 0.0 0.0 0.00 2.20 1.17 91 1011.2
20260508023026 58 182 0.0 0.0 0.00 2.20 1.17 90 1011.4
20260508021519 59 182 0.0 0.0 0.00 2.20 1.17 89 1011.3
20260508020019 59 182 0.0 0.0 0.00 2.38 1.17 88 1011.1
20260508014538 60 182 0.0 0.0 0.00 2.38 1.17 87 1010.8
20260508013023 60 182 0.0 0.0 0.00 2.38 1.17 87 1010.7
20260508011503 61 182 0.0 0.0 0.00 2.38 1.17 87 1010.6
20260508010004 62 182 0.0 0.0 0.00 2.43 1.17 86 1010.6
20260508004508 62 182 0.0 0.0 0.00 2.43 1.17 85 1010.3
20260508003048 62 182 0.0 0.0 0.00 2.43 1.17 85 1010.2
20260508001527 63 182 0.0 0.0 0.00 2.43 1.17 85 1010.1
20260508000026 64 182 0.0 0.0 0.00 2.57 1.17 83 1009.9
20260507234529 64 182 0.0 0.0 0.00 2.57 1.17 82 1009.9
20260507233036 65 182 0.0 0.0 0.00 2.57 1.17 80 1009.7
20260507231537 65 182 0.0 0.0 0.00 2.57 1.17 79 1009.5
20260507230017 65 182 0.0 0.0 0.00 2.85 1.17 80 1009.4
20260507224517 65 182 0.0 0.0 0.00 2.85 1.17 80 1009.2
20260507223050 66 182 0.0 0.0 0.00 2.85 1.17 79 1009.3
20260507221540 66 207 0.0 0.0 0.00 2.85 1.17 80 1009.1
20260507220036 65 207 0.0 0.0 0.00 2.85 1.17 83 1009.1
20260507214520 64 207 0.0 0.0 0.00 2.85 1.17 84 1008.9
20260507213041 64 207 0.0 0.0 0.00 2.85 1.17 84 1009.1
20260507211600 64 207 0.0 0.0 0.00 2.85 1.17 83 1008.9